Location: Boiro
(42.6475°N, 8.8834°W)
Time: 18:47:48
(UTC+01:00)

Explorer 7 - Pass Details

Date: 05 December 2021
Orbit: 483 x 674 km, 50.3° (Epoch: 20 January)

Event Time Altitude Azimuth Distance (km) Brightness Sun altitude
Rises 09:35:06 0° 287° (WNW) 2,752 9.8 6.0°
Reaches altitude 10° 09:37:41 10° 299° (WNW) 1,819 8.9 6.4°
Maximum altitude 09:41:13 27° 358° (N) 1,047 8.0 6.9°
Drops below altitude 10° 09:44:36 10° 58° (ENE) 1,732 9.6 7.3°
Sets 09:46:59 0° 71° (ENE) 2,593 10.7 7.7°
